Location: Caltech
(34.1382°N, 118.1253°W)
Time: 14:14:51
(UTC-07:00)

Aureole 3 Rocket - Visible Passes

Search period start: 30 July 2014 00:00
Search period end: 09 August 2014 00:00
Orbit: 399 x 1758 km, 82.5° (Epoch: 30 July)

Date Brightness Start Highest point End Pass type
(mag) Time Alt. Az. Time Alt. Az. Time Alt. Az.
30 Jul 4.6 20:27:22 10° ESE 20:28:48 12° E 20:30:22 10° ENE visible
30 Jul 5.1 22:13:40 12° WSW 22:16:01 21° WNW 22:19:11 10° NNW visible
31 Jul 2.6 21:22:13 18° S 21:24:37 87° W 21:28:55 10° N visible
01 Aug 4.0 20:31:06 10° SE 20:33:54 23° E 20:37:17 10° NNE visible
01 Aug 5.7 22:19:51 10° W 22:21:45 13° WNW 22:23:54 10° NW visible
02 Aug 3.8 21:26:43 10° SSW 21:30:04 47° WNW 21:34:30 10° N visible
03 Aug 3.3 20:35:42 10° SSE 20:39:03 43° E 20:43:28 10° NNE visible
04 Aug 5.1 21:32:25 10° SW 21:35:41 28° WNW 21:39:53 10° NNW visible
05 Aug 2.9 20:40:40 10° S 20:44:20 80° E 20:49:23 10° N visible
06 Aug 5.8 21:38:29 10° WSW 21:41:26 19° WNW 21:45:03 10° NNW visible
07 Aug 3.8 20:45:57 10° SSW 20:49:47 60° W 20:55:07 10° N visible
08 Aug 6.4 21:45:08 10° W 21:47:18 13° WNW 21:49:46 10° NW visible
